Location: L�gaud
(45.7115°N, 1.7775°E)
Time: 13:33:04
(UTC+00:00)

Cosmos 2084 Rocket - Pass Details

Date: 03 March 2021
Orbit: 528 x 652 km, 62.8° (Epoch: 11 April)

Event Time Altitude Azimuth Distance (km) Brightness Sun altitude
Rises 18:23:17 0° 322° (NW) 2,799 7.5 -7.9°
Reaches altitude 10° 18:25:31 10° 326° (NNW) 1,918 6.6 -8.3°
Maximum altitude 18:29:49 61° 48° (NE) 691 3.6 -9.0°
Drops below altitude 10° 18:34:16 10° 128° (SE) 1,984 5.7 -9.8°
Enters shadow 18:35:02 - 130° (SE) 2,288 6.0 -10.0°
